This is the latest recevied weather packets stored in our database for station/object N6SPP. If no packets are shown the sender has not sent any weather packets the latest 10 day(s).
| Time | Temp. | Humidity | Pressure | Rain* | Wind** | Luminosity | Snow |
|---|---|---|---|---|---|---|---|
| 1777448327 | 17.22° C | 56% | 1020.4 hPa | 0 mm | - | 0 W/m² | - |
| 1777448023 | 16.67° C | 57% | 1020.5 hPa | 0 mm | - | 0 W/m² | - |
| 1777447718 | 16.67° C | 58% | 1020.5 hPa | 0 mm | - | 0 W/m² | - |
| 1777447415 | 17.22° C | 58% | 1020.5 hPa | 0 mm | - | 0 W/m² | - |
| 1777447111 | 16.67° C | 60% | 1020.4 hPa | 0 mm | - | 0 W/m² | - |
| 1777446811 | 16.67° C | 61% | 1020.3 hPa | 0 mm | - | 0 W/m² | - |
| 1777446505 | 16.67° C | 62% | 1020.5 hPa | 0 mm | - | 0 W/m² | - |
| 1777446202 | 16.67° C | 63% | 1020.4 hPa | 0 mm | - | 0 W/m² | - |
| 1777445899 | 16.67° C | 64% | 1020.5 hPa | 0 mm | - | 0 W/m² | - |
| 1777445595 | 16.11° C | 64% | 1020.5 hPa | 0 mm | - | 0 W/m² | - |
| 1777445292 | 16.11° C | 64% | 1020.6 hPa | 0 mm | - | 0 W/m² | - |
| 1777444988 | 16.11° C | 66% | 1020.7 hPa | 0 mm | - | 0 W/m² | - |
| 1777444684 | 16.11° C | 66% | 1020.5 hPa | 0 mm | - | 0 W/m² | - |
| 1777444380 | 16.11° C | 66% | 1020.7 hPa | 0 mm | - | 0 W/m² | - |
| 1777444078 | 16.11° C | 66% | 1020.6 hPa | 0 mm | - | 0 W/m² | - |
| 1777443773 | 16.11° C | 66% | 1020.7 hPa | 0 mm | - | 0 W/m² | - |
| 1777443469 | 16.11° C | 65% | 1020.6 hPa | 0 mm | - | 0 W/m² | - |
| 1777443166 | 16.11° C | 66% | 1020.6 hPa | 0 mm | - | 0 W/m² | - |
| 1777442863 | 16.11° C | 66% | 1020.5 hPa | 0 mm | - | 0 W/m² | - |
| 1777442559 | 15.56° C | 66% | 1020.7 hPa | 0 mm | - | 0 W/m² | - |
| 1777442254 | 15.56° C | 67% | 1020.4 hPa | 0 mm | - | 0 W/m² | - |
| 1777441951 | 15.56° C | 66% | 1020.6 hPa | 0 mm | - | 0 W/m² | - |
| 1777441646 | 15.56° C | 65% | 1020.6 hPa | 0 mm | - | 0 W/m² | - |
| 1777441342 | 15.56° C | 67% | 1020.6 hPa | 0 mm | - | 0 W/m² | - |
| 1777441037 | 16.11° C | 67% | 1020.5 hPa | 0 mm | - | 0 W/m² | - |
* Rain latest hour (hover to see other rain measurements)
** Current wind speed in m/s (hover to see current wind gust speed)